,,PressureMeas_1m,,PRMeasQMR101_1,,RHStat155_1m_1,,SRMeasQMS101R_1m,,TAStat155_1m_1,,GenWind_1,,GenWind_1,
2018-05-15, 07:00:06,VALID,915.862,VALID,0.0,VALID,83.302,VALID,188.539,VALID,22.662,VALID,327.0,VALID,0.623,
2018-05-15, 07:01:06,VALID,915.868,VALID,0.0,VALID,84.006,VALID,193.846,VALID,22.587,VALID,323.0,VALID,0.327,
2018-05-15, 07:02:06,VALID,915.88,VALID,0.0,VALID,84.649,VALID,198.045,VALID,22.545,VALID,313.0,VALID,0.146,
2018-05-15, 07:03:06,VALID,915.896,VALID,0.0,VALID,84.03,VALID,204.7,VALID,22.422,VALID,280.0,VALID,0.173,
2018-05-15, 07:04:06,VALID,915.919,VALID,0.0,VALID,84.194,VALID,216.903,VALID,22.298,VALID,240.0,VALID,0.117,
2018-05-15, 07:05:06,VALID,915.932,VALID,0.0,VALID,84.555,VALID,225.344,VALID,22.137,VALID,243.0,VALID,0.0,
2018-05-15, 07:06:06,VALID,915.952,VALID,0.0,VALID,84.895,VALID,228.252,VALID,21.955,VALID,238.0,VALID,0.0,
2018-05-15, 07:07:06,VALID,915.957,VALID,0.0,VALID,85.315,VALID,232.176,VALID,21.825,VALID,233.0,VALID,0.0,
2018-05-15, 07:08:06,VALID,915.973,VALID,0.0,VALID,86.088,VALID,231.693,VALID,21.819,VALID,235.0,VALID,0.48,
2018-05-15, 07:09:06,VALID,915.983,VALID,0.0,VALID,86.03,VALID,220.747,VALID,21.786,VALID,235.0,VALID,0.57,
2018-05-15, 07:10:06,VALID,915.982,VALID,0.0,VALID,86.732,VALID,219.569,VALID,21.735,VALID,256.0,VALID,0.385,
2018-05-15, 07:11:06,VALID,916.007,VALID,0.0,VALID,87.06,VALID,232.284,VALID,21.767,VALID,256.0,VALID,0.12,
2018-05-15, 07:12:06,VALID,916.013,VALID,0.0,VALID,87.237,VALID,246.737,VALID,21.849,VALID,259.0,VALID,0.0,
2018-05-15, 07:13:06,VALID,916.043,VALID,0.0,VALID,86.432,VALID,247.146,VALID,22.03,VALID,241.0,VALID,0.0,
2018-05-15, 07:14:06,VALID,916.061,VALID,0.0,VALID,85.331,VALID,250.513,VALID,22.154,VALID,229.0,VALID,0.0,
2018-05-15, 07:15:06,VALID,916.104,VALID,0.0,VALID,84.013,VALID,264.988,VALID,22.161,VALID,232.0,VALID,0.0,
2018-05-15, 07:16:06,VALID,916.142,VALID,0.0,VALID,84.27,VALID,269.136,VALID,22.162,VALID,232.0,VALID,0.0,
2018-05-15, 07:17:06,VALID,916.172,VALID,0.0,VALID,84.095,VALID,275.176,VALID,22.2,VALID,232.0,VALID,0.0,
2018-05-15, 07:18:06,VALID,916.212,VALID,0.0,VALID,83.839,VALID,284.914,VALID,22.287,VALID,232.0,VALID,0.0,
2018-05-15, 07:19:06,VALID,916.225,VALID,0.0,VALID,82.891,VALID,287.697,VALID,22.401,VALID,228.0,VALID,0.0,
2018-05-15, 07:20:06,VALID,916.228,VALID,0.0,VALID,83.027,VALID,287.153,VALID,22.556,VALID,181.0,VALID,0.0,
2018-05-15, 07:21:06,VALID,916.216,VALID,0.0,VALID,82.952,VALID,287.279,VALID,22.761,VALID,161.0,VALID,0.0,
2018-05-15, 07:22:06,VALID,916.205,VALID,0.0,VALID,82.085,VALID,292.588,VALID,22.934,VALID,162.0,VALID,0.0,
2018-05-15, 07:23:06,VALID,916.196,VALID,0.0,VALID,81.143,VALID,298.749,VALID,23.152,VALID,156.0,VALID,0.025,
2018-05-15, 07:24:06,VALID,916.188,VALID,0.0,VALID,78.15,VALID,301.772,VALID,23.36,VALID,150.0,VALID,0.005,
2018-05-15, 07:25:06,VALID,916.191,VALID,0.0,VALID,78.969,VALID,304.904,VALID,23.592,VALID,142.0,VALID,0.402,
2018-05-15, 07:26:06,VALID,916.179,VALID,0.0,VALID,79.167,VALID,308.33,VALID,23.585,VALID,134.0,VALID,0.358,
2018-05-15, 07:27:06,VALID,916.18,VALID,0.0,VALID,79.72,VALID,315.779,VALID,23.665,VALID,157.0,VALID,0.252,
2018-05-15, 07:28:06,VALID,916.188,VALID,0.0,VALID,78.949,VALID,319.338,VALID,23.853,VALID,129.0,VALID,0.403,
2018-05-15, 07:29:06,VALID,916.191,VALID,0.0,VALID,77.644,VALID,316.53,VALID,24.074,VALID,113.0,VALID,0.005,
2018-05-15, 07:30:06,VALID,916.193,VALID,0.0,VALID,76.526,VALID,313.819,VALID,24.325,VALID,57.0,VALID,0.14,
2018-05-15, 07:31:06,VALID,916.202,VALID,0.0,VALID,74.455,VALID,313.312,VALID,24.515,VALID,345.0,VALID,0.637,
2018-05-15, 07:32:06,VALID,916.224,VALID,0.0,VALID,74.323,VALID,313.638,VALID,24.736,VALID,35.0,VALID,0.37,
2018-05-15, 07:33:06,VALID,916.246,VALID,0.0,VALID,73.28,VALID,310.659,VALID,24.95,VALID,8.0,VALID,0.17,
2018-05-15, 07:34:06,VALID,916.276,VALID,0.0,VALID,73.314,VALID,305.608,VALID,25.123,VALID,33.0,VALID,0.0,
2018-05-15, 07:35:06,VALID,916.287,VALID,0.0,VALID,72.908,VALID,305.995,VALID,25.153,VALID,3.0,VALID,0.0,
2018-05-15, 07:36:06,VALID,916.307,VALID,0.0,VALID,72.836,VALID,290.103,VALID,25.112,VALID,80.0,VALID,0.0,
2018-05-15, 07:37:06,VALID,916.32,VALID,0.0,VALID,72.608,VALID,261.891,VALID,25.163,VALID,201.0,VALID,0.0,
2018-05-15, 07:38:06,VALID,916.327,VALID,0.0,VALID,72.44,VALID,225.844,VALID,25.262,VALID,207.0,VALID,0.0,
2018-05-15, 07:39:06,VALID,916.348,VALID,0.0,VALID,72.077,VALID,204.562,VALID,25.255,VALID,250.0,VALID,0.0,
2018-05-15, 07:40:06,VALID,916.362,VALID,0.0,VALID,73.423,VALID,200.463,VALID,24.92,VALID,269.0,VALID,0.0,
2018-05-15, 07:41:06,VALID,916.382,VALID,0.0,VALID,74.73,VALID,194.681,VALID,24.638,VALID,235.0,VALID,0.0,
2018-05-15, 07:42:06,VALID,916.393,VALID,0.0,VALID,75.192,VALID,200.925,VALID,24.302,VALID,210.0,VALID,0.0,
2018-05-15, 07:43:06,VALID,916.408,VALID,0.0,VALID,76.096,VALID,221.697,VALID,24.106,VALID,221.0,VALID,0.0,
2018-05-15, 07:44:06,VALID,916.406,VALID,0.0,VALID,76.713,VALID,253.891,VALID,24.111,VALID,215.0,VALID,0.0,
2018-05-15, 07:45:06,VALID,916.415,VALID,0.0,VALID,76.841,VALID,274.377,VALID,24.106,VALID,170.0,VALID,0.0,
2018-05-15, 07:46:06,VALID,916.421,VALID,0.0,VALID,77.035,VALID,287.335,VALID,24.182,VALID,80.0,VALID,0.0,
2018-05-15, 07:47:06,VALID,916.409,VALID,0.0,VALID,77.546,VALID,261.821,VALID,24.358,VALID,104.0,VALID,0.0,
2018-05-15, 07:48:06,VALID,916.402,VALID,0.0,VALID,74.965,VALID,239.637,VALID,24.546,VALID,97.0,VALID,0.177,
2018-05-15, 07:49:06,VALID,916.393,VALID,0.0,VALID,74.326,VALID,229.332,VALID,24.698,VALID,93.0,VALID,0.0,
2018-05-15, 07:50:06,VALID,916.402,VALID,0.0,VALID,74.138,VALID,209.654,VALID,24.774,VALID,85.0,VALID,0.0,
2018-05-15, 07:51:06,VALID,916.418,VALID,0.0,VALID,74.461,VALID,201.665,VALID,24.829,VALID,87.0,VALID,0.249,
2018-05-15, 07:52:06,VALID,916.432,VALID,0.0,VALID,73.291,VALID,199.596,VALID,24.755,VALID,119.0,VALID,0.075,
2018-05-15, 07:53:06,VALID,916.466,VALID,0.0,VALID,73.902,VALID,195.856,VALID,24.605,VALID,131.0,VALID,0.005,
2018-05-15, 07:54:06,VALID,916.5,VALID,0.0,VALID,74.59,VALID,192.886,VALID,24.57,VALID,139.0,VALID,0.102,
2018-05-15, 07:55:06,VALID,916.541,VALID,0.0,VALID,74.669,VALID,192.48,VALID,24.531,VALID,197.0,VALID,0.118,
2018-05-15, 07:56:06,VALID,916.574,VALID,0.0,VALID,74.932,VALID,194.721,VALID,24.37,VALID,201.0,VALID,0.059,
2018-05-15, 07:57:06,VALID,916.597,VALID,0.0,VALID,75.633,VALID,197.274,VALID,24.324,VALID,191.0,VALID,0.029,
2018-05-15, 07:58:06,VALID,916.61,VALID,0.0,VALID,76.009,VALID,199.833,VALID,24.363,VALID,96.0,VALID,0.3,
2018-05-15, 07:59:06,VALID,916.606,VALID,0.0,VALID,76.614,VALID,204.581,VALID,24.357,VALID,94.0,VALID,0.447,
2018-05-15, 08:00:06,VALID,916.6,VALID,0.0,VALID,77.774,VALID,215.937,VALID,24.301,VALID,172.0,VALID,0.63,
2018-05-15, 08:01:06,VALID,916.596,VALID,0.0,VALID,77.061,VALID,240.357,VALID,24.119,VALID,181.0,VALID,0.196,
2018-05-15, 08:02:06,VALID,916.595,VALID,0.0,VALID,77.586,VALID,273.686,VALID,24.056,VALID,128.0,VALID,0.369,
2018-05-15, 08:03:06,VALID,916.586,VALID,0.0,VALID,77.26,VALID,296.435,VALID,24.149,VALID,126.0,VALID,0.117,
2018-05-15, 08:04:06,VALID,916.6,VALID,0.0,VALID,77.127,VALID,312.556,VALID,24.291,VALID,190.0,VALID,0.022,
2018-05-15, 08:05:06,VALID,916.618,VALID,0.0,VALID,77.473,VALID,315.026,VALID,24.293,VALID,188.0,VALID,0.316,
2018-05-15, 08:06:06,VALID,916.627,VALID,0.0,VALID,77.564,VALID,314.644,VALID,24.16,VALID,181.0,VALID,0.747,
2018-05-15, 08:07:06,VALID,916.637,VALID,0.0,VALID,77.661,VALID,321.242,VALID,23.879,VALID,182.0,VALID,0.913,
2018-05-15, 08:08:06,VALID,916.626,VALID,0.0,VALID,79.213,VALID,320.454,VALID,23.683,VALID,176.0,VALID,0.679,
2018-05-15, 08:09:06,VALID,916.618,VALID,0.0,VALID,80.874,VALID,321.363,VALID,23.635,VALID,151.0,VALID,0.543,
2018-05-15, 08:10:06,VALID,916.596,VALID,0.0,VALID,80.734,VALID,327.035,VALID,23.745,VALID,138.0,VALID,0.216,
2018-05-15, 08:11:06,VALID,916.578,VALID,0.0,VALID,80.029,VALID,315.031,VALID,23.934,VALID,190.0,VALID,0.242,
2018-05-15, 08:12:06,VALID,916.561,VALID,0.0,VALID,80.541,VALID,302.909,VALID,24.032,VALID,175.0,VALID,0.159,
2018-05-15, 08:13:06,VALID,916.557,VALID,0.0,VALID,80.282,VALID,292.563,VALID,24.195,VALID,164.0,VALID,0.458,
2018-05-15, 08:14:06,VALID,916.549,VALID,0.0,VALID,78.738,VALID,282.149,VALID,24.274,VALID,161.0,VALID,0.733,
2018-05-15, 08:15:06,VALID,916.551,VALID,0.0,VALID,78.323,VALID,280.11,VALID,24.166,VALID,186.0,VALID,0.359,
2018-05-15, 08:16:06,VALID,916.553,VALID,0.0,VALID,79.36,VALID,277.917,VALID,24.128,VALID,141.0,VALID,0.557,
2018-05-15, 08:17:06,VALID,916.554,VALID,0.0,VALID,79.403,VALID,271.078,VALID,24.136,VALID,188.0,VALID,0.201,
2018-05-15, 08:18:06,VALID,916.546,VALID,0.0,VALID,79.148,VALID,262.484,VALID,24.18,VALID,155.0,VALID,0.355,
2018-05-15, 08:19:06,VALID,916.549,VALID,0.0,VALID,78.255,VALID,257.581,VALID,24.125,VALID,188.0,VALID,0.359,
2018-05-15, 08:20:06,VALID,916.541,VALID,0.0,VALID,79.584,VALID,252.601,VALID,23.98,VALID,184.0,VALID,0.366,
2018-05-15, 08:21:06,VALID,916.541,VALID,0.0,VALID,79.705,VALID,253.89,VALID,23.918,VALID,171.0,VALID,0.513,
2018-05-15, 08:22:06,VALID,916.53,VALID,0.0,VALID,79.842,VALID,254.131,VALID,23.886,VALID,123.0,VALID,0.3,
2018-05-15, 08:23:06,VALID,916.547,VALID,0.0,VALID,79.494,VALID,257.627,VALID,23.967,VALID,98.0,VALID,0.357,
2018-05-15, 08:24:06,VALID,916.534,VALID,0.0,VALID,78.727,VALID,269.046,VALID,24.1,VALID,88.0,VALID,0.896,
2018-05-15, 08:25:06,VALID,916.568,VALID,0.0,VALID,78.992,VALID,293.202,VALID,24.192,VALID,110.0,VALID,0.679,
2018-05-15, 08:26:06,VALID,916.586,VALID,0.0,VALID,77.947,VALID,292.825,VALID,24.261,VALID,175.0,VALID,0.275,
2018-05-15, 08:27:06,VALID,916.613,VALID,0.0,VALID,77.056,VALID,296.057,VALID,24.335,VALID,126.0,VALID,0.013,
2018-05-15, 08:28:06,VALID,916.625,VALID,0.0,VALID,77.46,VALID,320.311,VALID,24.424,VALID,101.0,VALID,0.115,
2018-05-15, 08:29:06,VALID,916.648,VALID,0.0,VALID,77.393,VALID,338.735,VALID,24.602,VALID,53.0,VALID,0.266,
2018-05-15, 08:30:06,VALID,916.659,VALID,0.0,VALID,75.682,VALID,337.986,VALID,24.735,VALID,43.0,VALID,0.893,
2018-05-15, 08:31:06,VALID,916.674,VALID,0.0,VALID,74.288,VALID,335.505,VALID,24.574,VALID,17.0,VALID,0.207,
2018-05-15, 08:32:06,VALID,916.683,VALID,0.0,VALID,74.762,VALID,328.66,VALID,24.472,VALID,6.0,VALID,0.0,
2018-05-15, 08:33:06,VALID,916.7,VALID,0.0,VALID,74.846,VALID,318.07,VALID,24.527,VALID,329.0,VALID,0.0,
2018-05-15, 08:34:06,VALID,916.722,VALID,0.0,VALID,75.95,VALID,316.816,VALID,24.628,VALID,335.0,VALID,0.047,
2018-05-15, 08:35:06,VALID,916.748,VALID,0.0,VALID,75.928,VALID,351.726,VALID,24.796,VALID,335.0,VALID,0.019,
2018-05-15, 08:36:06,VALID,916.768,VALID,0.0,VALID,75.044,VALID,358.574,VALID,25.038,VALID,25.0,VALID,0.114,
2018-05-15, 08:37:06,VALID,916.784,VALID,0.0,VALID,74.628,VALID,398.541,VALID,25.148,VALID,9.0,VALID,0.768,
2018-05-15, 08:38:06,VALID,916.831,VALID,0.0,VALID,75.016,VALID,424.485,VALID,24.897,VALID,70.0,VALID,1.562,
2018-05-15, 08:39:06,VALID,916.855,VALID,0.0,VALID,74.721,VALID,524.84,VALID,24.588,VALID,82.0,VALID,0.746,
2018-05-15, 08:40:06,VALID,916.872,VALID,0.0,VALID,75.298,VALID,548.422,VALID,24.553,VALID,36.0,VALID,0.677,
2018-05-15, 08:41:06,VALID,916.884,VALID,0.0,VALID,75.878,VALID,533.913,VALID,24.731,VALID,53.0,VALID,0.518,
2018-05-15, 08:42:06,VALID,916.895,VALID,0.0,VALID,74.626,VALID,499.718,VALID,24.94,VALID,66.0,VALID,0.42,
2018-05-15, 08:43:06,VALID,916.902,VALID,0.0,VALID,75.484,VALID,486.74,VALID,25.07,VALID,54.0,VALID,0.791,
2018-05-15, 08:44:06,VALID,916.91,VALID,0.0,VALID,73.644,VALID,484.925,VALID,25.152,VALID,56.0,VALID,0.91,
2018-05-15, 08:45:06,VALID,916.918,VALID,0.0,VALID,72.506,VALID,470.539,VALID,25.151,VALID,45.0,VALID,0.814,
2018-05-15, 08:46:06,VALID,916.925,VALID,0.0,VALID,72.812,VALID,454.3,VALID,25.222,VALID,40.0,VALID,0.728,
2018-05-15, 08:47:06,VALID,916.924,VALID,0.0,VALID,73.798,VALID,431.146,VALID,25.362,VALID,94.0,VALID,0.344,
2018-05-15, 08:48:06,VALID,916.91,VALID,0.0,VALID,72.322,VALID,411.548,VALID,25.475,VALID,120.0,VALID,0.751,
2018-05-15, 08:49:06,VALID,916.922,VALID,0.0,VALID,72.463,VALID,441.439,VALID,25.524,VALID,103.0,VALID,1.229,
2018-05-15, 08:50:06,VALID,916.929,VALID,0.0,VALID,72.515,VALID,442.816,VALID,25.59,VALID,81.0,VALID,0.518,
2018-05-15, 08:51:06,VALID,916.922,VALID,0.0,VALID,71.784,VALID,419.129,VALID,25.648,VALID,109.0,VALID,1.775,
2018-05-15, 08:52:06,VALID,916.919,VALID,0.0,VALID,73.43,VALID,389.329,VALID,25.453,VALID,78.0,VALID,1.062,
2018-05-15, 08:53:06,VALID,916.924,VALID,0.0,VALID,72.59,VALID,369.688,VALID,25.379,VALID,90.0,VALID,1.021,
2018-05-15, 08:54:06,VALID,916.903,VALID,0.0,VALID,73.949,VALID,353.154,VALID,25.367,VALID,47.0,VALID,1.278,
2018-05-15, 08:55:06,VALID,916.913,VALID,0.0,VALID,72.561,VALID,340.486,VALID,25.354,VALID,32.0,VALID,0.606,
2018-05-15, 08:56:06,VALID,916.924,VALID,0.0,VALID,73.079,VALID,346.159,VALID,25.267,VALID,64.0,VALID,0.408,
2018-05-15, 08:57:06,VALID,916.922,VALID,0.0,VALID,74.07,VALID,357.689,VALID,25.198,VALID,45.0,VALID,1.015,
2018-05-15, 08:58:06,VALID,916.957,VALID,0.0,VALID,74.177,VALID,361.564,VALID,25.142,VALID,87.0,VALID,1.232,
2018-05-15, 08:59:06,VALID,916.955,VALID,0.0,VALID,74.733,VALID,368.129,VALID,25.065,VALID,56.0,VALID,1.554,
2018-05-15, 09:00:06,VALID,916.962,VALID,0.0,VALID,75.151,VALID,362.852,VALID,24.888,VALID,47.0,VALID,1.431,
2018-05-15, 09:01:06,VALID,916.972,VALID,0.0,VALID,76.749,VALID,360.273,VALID,24.685,VALID,50.0,VALID,1.33,
2018-05-15, 09:02:06,VALID,916.99,VALID,0.0,VALID,77.778,VALID,370.653,VALID,24.686,VALID,57.0,VALID,1.063,
2018-05-15, 09:03:06,VALID,916.978,VALID,0.0,VALID,76.432,VALID,383.248,VALID,24.744,VALID,89.0,VALID,1.077,
2018-05-15, 09:04:06,VALID,916.984,VALID,0.0,VALID,76.724,VALID,397.518,VALID,24.816,VALID,73.0,VALID,1.245,
2018-05-15, 09:05:06,VALID,916.975,VALID,0.0,VALID,75.743,VALID,397.71,VALID,24.787,VALID,93.0,VALID,1.13,
2018-05-15, 09:06:06,VALID,916.973,VALID,0.0,VALID,75.438,VALID,386.072,VALID,24.885,VALID,87.0,VALID,0.668,
2018-05-15, 09:07:06,VALID,916.981,VALID,0.0,VALID,75.879,VALID,374.875,VALID,25.092,VALID,45.0,VALID,1.35,
2018-05-15, 09:08:06,VALID,916.971,VALID,0.0,VALID,74.924,VALID,366.912,VALID,25.043,VALID,43.0,VALID,1.385,
2018-05-15, 09:09:06,VALID,916.965,VALID,0.0,VALID,76.073,VALID,350.611,VALID,24.862,VALID,36.0,VALID,1.006,
2018-05-15, 09:10:06,VALID,916.988,VALID,0.0,VALID,76.408,VALID,354.124,VALID,24.844,VALID,71.0,VALID,1.206,
2018-05-15, 09:11:06,VALID,916.99,VALID,0.0,VALID,75.968,VALID,348.281,VALID,24.852,VALID,66.0,VALID,1.448,
2018-05-15, 09:12:06,VALID,916.966,VALID,0.0,VALID,76.024,VALID,344.994,VALID,24.807,VALID,50.0,VALID,1.392,
2018-05-15, 09:13:06,VALID,916.976,VALID,0.0,VALID,78.246,VALID,342.174,VALID,24.91,VALID,26.0,VALID,1.304,
2018-05-15, 09:14:06,VALID,916.971,VALID,0.0,VALID,74.865,VALID,335.48,VALID,24.905,VALID,51.0,VALID,0.848,
2018-05-15, 09:15:06,VALID,916.962,VALID,0.0,VALID,73.242,VALID,339.156,VALID,24.894,VALID,42.0,VALID,0.628,
2018-05-15, 09:16:06,VALID,916.966,VALID,0.0,VALID,74.493,VALID,343.306,VALID,24.879,VALID,78.0,VALID,1.525,
2018-05-15, 09:17:06,VALID,916.939,VALID,0.0,VALID,74.767,VALID,348.281,VALID,24.756,VALID,33.0,VALID,2.816,
2018-05-15, 09:18:06,VALID,916.952,VALID,0.0,VALID,75.16,VALID,352.052,VALID,24.59,VALID,27.0,VALID,0.621,
2018-05-15, 09:19:06,VALID,916.941,VALID,0.0,VALID,76.337,VALID,354.92,VALID,24.745,VALID,57.0,VALID,0.0,
2018-05-15, 09:20:06,VALID,916.929,VALID,0.0,VALID,75.19,VALID,384.887,VALID,24.843,VALID,38.0,VALID,0.0,
2018-05-15, 09:21:06,VALID,916.937,VALID,0.0,VALID,73.858,VALID,465.473,VALID,24.83,VALID,68.0,VALID,0.0,
2018-05-15, 09:22:06,VALID,916.944,VALID,0.0,VALID,75.405,VALID,537.962,VALID,24.966,VALID,104.0,VALID,0.0,
2018-05-15, 09:23:06,VALID,916.959,VALID,0.0,VALID,73.404,VALID,559.757,VALID,25.094,VALID,91.0,VALID,0.0,
2018-05-15, 09:24:06,VALID,916.958,VALID,0.0,VALID,73.334,VALID,569.937,VALID,25.084,VALID,100.0,VALID,0.0,
2018-05-15, 09:25:06,VALID,916.973,VALID,0.0,VALID,73.032,VALID,582.697,VALID,25.13,VALID,73.0,VALID,0.0,
2018-05-15, 09:26:06,VALID,916.954,VALID,0.0,VALID,71.966,VALID,572.958,VALID,25.256,VALID,20.0,VALID,0.0,
2018-05-15, 09:27:06,VALID,916.942,VALID,0.0,VALID,71.824,VALID,571.175,VALID,25.359,VALID,46.0,VALID,0.0,
2018-05-15, 09:28:06,VALID,916.945,VALID,0.0,VALID,73.217,VALID,549.934,VALID,25.471,VALID,83.0,VALID,0.0,
2018-05-15, 09:29:06,VALID,916.953,VALID,0.0,VALID,70.785,VALID,563.116,VALID,25.564,VALID,108.0,VALID,0.0,
2018-05-15, 09:30:06,VALID,916.966,VALID,0.0,VALID,70.361,VALID,501.612,VALID,25.557,VALID,90.0,VALID,0.0,
2018-05-15, 09:31:06,VALID,916.971,VALID,0.0,VALID,71.583,VALID,457.197,VALID,25.457,VALID,94.0,VALID,0.0,
2018-05-15, 09:32:06,VALID,916.966,VALID,0.0,VALID,70.972,VALID,511.72,VALID,25.441,VALID,51.0,VALID,0.0,
2018-05-15, 09:33:06,VALID,916.978,VALID,0.0,VALID,71.56,VALID,585.467,VALID,25.367,VALID,62.0,VALID,0.0,
2018-05-15, 09:34:06,VALID,916.971,VALID,0.0,VALID,71.946,VALID,453.953,VALID,25.442,VALID,46.0,VALID,0.0,
2018-05-15, 09:35:06,VALID,916.987,VALID,0.0,VALID,70.915,VALID,408.665,VALID,25.467,VALID,51.0,VALID,0.0,
2018-05-15, 09:36:06,VALID,916.998,VALID,0.0,VALID,71.961,VALID,350.348,VALID,25.507,VALID,94.0,VALID,0.0,
2018-05-15, 09:37:06,VALID,916.991,VALID,0.0,VALID,70.316,VALID,386.167,VALID,25.461,VALID,94.0,VALID,0.0,
2018-05-15, 09:38:06,VALID,916.981,VALID,0.0,VALID,71.936,VALID,456.851,VALID,25.528,VALID,57.0,VALID,0.0,
2018-05-15, 09:39:06,VALID,916.985,VALID,0.0,VALID,70.202,VALID,455.168,VALID,25.635,VALID,74.0,VALID,0.0,
2018-05-15, 09:40:06,VALID,916.981,VALID,0.0,VALID,70.401,VALID,451.341,VALID,25.402,VALID,63.0,VALID,0.0,
2018-05-15, 09:41:06,VALID,916.99,VALID,0.0,VALID,72.486,VALID,471.617,VALID,25.256,VALID,30.0,VALID,0.0,
2018-05-15, 09:42:06,VALID,916.995,VALID,0.0,VALID,71.764,VALID,459.16,VALID,25.276,VALID,34.0,VALID,0.0,
2018-05-15, 09:43:06,VALID,917.009,VALID,0.0,VALID,70.828,VALID,443.495,VALID,25.334,VALID,47.0,VALID,0.0,
2018-05-15, 09:44:06,VALID,917.034,VALID,0.0,VALID,70.666,VALID,423.626,VALID,25.19,VALID,49.0,VALID,0.0,
2018-05-15, 09:45:06,VALID,917.041,VALID,0.0,VALID,72.004,VALID,425.541,VALID,25.158,VALID,54.0,VALID,0.0,
2018-05-15, 09:46:06,VALID,917.039,VALID,0.0,VALID,71.925,VALID,441.196,VALID,25.163,VALID,38.0,VALID,0.0,
2018-05-15, 09:47:06,VALID,917.037,VALID,0.0,VALID,72.329,VALID,482.275,VALID,25.262,VALID,44.0,VALID,0.0,
2018-05-15, 09:48:06,VALID,917.027,VALID,0.0,VALID,71.899,VALID,540.656,VALID,25.435,VALID,71.0,VALID,0.0,
2018-05-15, 09:49:06,VALID,917.035,VALID,0.0,VALID,71.181,VALID,624.969,VALID,25.514,VALID,80.0,VALID,0.0,
2018-05-15, 09:50:06,VALID,917.012,VALID,0.0,VALID,70.959,VALID,649.343,VALID,25.496,VALID,36.0,VALID,0.0,
2018-05-15, 09:51:06,VALID,917.028,VALID,0.0,VALID,71.223,VALID,675.582,VALID,25.406,VALID,53.0,VALID,0.0,
2018-05-15, 09:52:06,VALID,917.036,VALID,0.0,VALID,71.673,VALID,663.354,VALID,25.433,VALID,61.0,VALID,0.0,
2018-05-15, 09:53:06,VALID,917.023,VALID,0.0,VALID,71.502,VALID,650.257,VALID,25.459,VALID,56.0,VALID,0.0,
2018-05-15, 09:54:06,VALID,917.044,VALID,0.0,VALID,71.768,VALID,680.579,VALID,25.487,VALID,39.0,VALID,0.0,
2018-05-15, 09:55:06,VALID,917.053,VALID,0.0,VALID,72.16,VALID,696.762,VALID,25.618,VALID,44.0,VALID,0.0,
2018-05-15, 09:56:06,VALID,917.051,VALID,0.0,VALID,70.578,VALID,683.372,VALID,25.687,VALID,61.0,VALID,0.0,
2018-05-15, 09:57:06,VALID,917.062,VALID,0.0,VALID,71.034,VALID,671.476,VALID,25.887,VALID,66.0,VALID,0.0,
2018-05-15, 09:58:06,VALID,917.063,VALID,0.0,VALID,70.014,VALID,679.657,VALID,25.913,VALID,47.0,VALID,0.0,
2018-05-15, 09:59:06,VALID,917.092,VALID,0.0,VALID,71.388,VALID,723.682,VALID,25.913,VALID,53.0,VALID,0.0,
2018-05-15, 10:00:06,VALID,917.111,VALID,0.0,VALID,70.755,VALID,747.464,VALID,26.165,VALID,46.0,VALID,0.0,
2018-05-15, 10:01:06,VALID,917.098,VALID,0.0,VALID,69.007,VALID,747.299,VALID,26.133,VALID,31.0,VALID,0.0,
2018-05-15, 10:02:06,VALID,917.135,VALID,0.0,VALID,68.757,VALID,749.652,VALID,26.013,VALID,23.0,VALID,0.0,
2018-05-15, 10:03:06,VALID,917.145,VALID,0.0,VALID,71.409,VALID,771.085,VALID,26.117,VALID,74.0,VALID,0.0,
2018-05-15, 10:04:06,VALID,917.172,VALID,0.0,VALID,71.79,VALID,780.941,VALID,26.397,VALID,67.0,VALID,0.0,
2018-05-15, 10:05:06,VALID,917.185,VALID,0.0,VALID,69.153,VALID,760.42,VALID,26.63,VALID,67.0,VALID,0.0,
2018-05-15, 10:06:06,VALID,917.197,VALID,0.0,VALID,68.554,VALID,815.462,VALID,26.51,VALID,60.0,VALID,0.0,
2018-05-15, 10:07:06,VALID,917.203,VALID,0.0,VALID,68.464,VALID,877.182,VALID,26.526,VALID,83.0,VALID,0.0,
2018-05-15, 10:08:06,VALID,917.217,VALID,0.0,VALID,68.586,VALID,920.965,VALID,26.551,VALID,112.0,VALID,0.0,
2018-05-15, 10:09:06,VALID,917.197,VALID,0.0,VALID,68.23,VALID,945.483,VALID,26.805,VALID,60.0,VALID,0.0,
2018-05-15, 10:10:06,VALID,917.191,VALID,0.0,VALID,66.556,VALID,963.754,VALID,26.859,VALID,85.0,VALID,0.0,
2018-05-15, 10:11:06,VALID,917.177,VALID,0.0,VALID,67.875,VALID,923.525,VALID,26.614,VALID,39.0,VALID,0.0,
2018-05-15, 10:12:06,VALID,917.172,VALID,0.0,VALID,69.078,VALID,729.804,VALID,26.741,VALID,50.0,VALID,0.0,
2018-05-15, 10:13:06,VALID,917.172,VALID,0.0,VALID,68.604,VALID,563.455,VALID,26.75,VALID,62.0,VALID,0.0,
2018-05-15, 10:14:06,VALID,917.168,VALID,0.0,VALID,66.907,VALID,518.816,VALID,26.596,VALID,63.0,VALID,0.0,
2018-05-15, 10:15:06,VALID,917.172,VALID,0.0,VALID,67.534,VALID,453.618,VALID,26.494,VALID,56.0,VALID,0.0,
2018-05-15, 10:16:06,VALID,917.172,VALID,0.0,VALID,67.958,VALID,424.383,VALID,26.363,VALID,80.0,VALID,0.0,
2018-05-15, 10:17:06,VALID,917.164,VALID,0.0,VALID,70.129,VALID,375.459,VALID,26.155,VALID,45.0,VALID,0.0,
2018-05-15, 10:18:06,VALID,917.183,VALID,0.0,VALID,69.787,VALID,348.574,VALID,26.147,VALID,100.0,VALID,0.0,
2018-05-15, 10:19:06,VALID,917.192,VALID,0.0,VALID,68.4,VALID,330.721,VALID,26.082,VALID,96.0,VALID,0.0,
2018-05-15, 10:20:06,VALID,917.186,VALID,0.0,VALID,69.625,VALID,322.777,VALID,25.901,VALID,48.0,VALID,0.0,
2018-05-15, 10:21:06,VALID,917.195,VALID,0.0,VALID,69.679,VALID,311.688,VALID,25.663,VALID,65.0,VALID,0.0,
2018-05-15, 10:22:06,VALID,917.19,VALID,0.0,VALID,70.245,VALID,307.3,VALID,25.336,VALID,31.0,VALID,0.0,
2018-05-15, 10:23:06,VALID,917.19,VALID,0.0,VALID,71.146,VALID,317.647,VALID,25.245,VALID,54.0,VALID,0.0,
2018-05-15, 10:24:06,VALID,917.192,VALID,0.0,VALID,71.963,VALID,337.392,VALID,25.273,VALID,43.0,VALID,0.0,
2018-05-15, 10:25:06,VALID,917.18,VALID,0.0,VALID,70.943,VALID,355.765,VALID,25.229,VALID,29.0,VALID,0.0,
2018-05-15, 10:26:06,VALID,917.197,VALID,0.0,VALID,72.254,VALID,368.149,VALID,25.204,VALID,40.0,VALID,0.0,
2018-05-15, 10:27:06,VALID,917.204,VALID,0.0,VALID,70.74,VALID,379.525,VALID,25.257,VALID,43.0,VALID,0.0,
2018-05-15, 10:28:06,VALID,917.204,VALID,0.0,VALID,71.076,VALID,395.89,VALID,25.401,VALID,74.0,VALID,0.0,
2018-05-15, 10:29:06,VALID,917.198,VALID,0.0,VALID,71.359,VALID,422.765,VALID,25.508,VALID,42.0,VALID,0.0,
2018-05-15, 10:30:06,VALID,917.178,VALID,0.0,VALID,69.58,VALID,498.865,VALID,25.442,VALID,64.0,VALID,0.0,
2018-05-15, 10:31:06,VALID,917.196,VALID,0.0,VALID,69.692,VALID,683.366,VALID,25.591,VALID,102.0,VALID,0.0,
2018-05-15, 10:32:06,VALID,917.189,VALID,0.0,VALID,70.286,VALID,787.084,VALID,25.917,VALID,76.0,VALID,0.0,
2018-05-15, 10:33:06,VALID,917.191,VALID,0.0,VALID,70.083,VALID,595.921,VALID,26.37,VALID,67.0,VALID,0.0,
2018-05-15, 10:34:06,VALID,917.188,VALID,0.0,VALID,64.812,VALID,616.012,VALID,26.421,VALID,101.0,VALID,0.0,
2018-05-15, 10:35:06,VALID,917.152,VALID,0.0,VALID,65.999,VALID,523.495,VALID,26.04,VALID,91.0,VALID,0.0,
2018-05-15, 10:36:06,VALID,917.128,VALID,0.0,VALID,67.589,VALID,442.359,VALID,25.976,VALID,71.0,VALID,0.0,
2018-05-15, 10:37:06,VALID,917.136,VALID,0.0,VALID,67.678,VALID,479.8,VALID,26.006,VALID,43.0,VALID,0.0,
2018-05-15, 10:38:06,VALID,917.128,VALID,0.0,VALID,67.66,VALID,770.368,VALID,25.855,VALID,58.0,VALID,0.0,